Notices

What's New in latest Release from April 7th, 2021:

- Updated Glossary, including Speed of Maximum Gust, and Total Hourly Precipitation

- Updated national and regional climate services offices contacts and prices information

- Addition of station inventory lists for 1981-2010, 1971-2000, and 1961-1990 Normals.

If you haven't already, please take our survey and provide feedback about our website: https://eccc.sondage-survey.ca/f/LanguageSelection.aspx?s=442ca660-fcf1-47c0-95a9-59707d6fd709

Hourly Data Report for October 16, 2015

IQALUIT CLIMATE
NUNAVUT

63°44'50.000" N
68°32'40.000" W
33.50 m
2402592
71321
XFB

Download Data

Hourly Data (October 2015)
Hourly Data Report for October 16, 2015
TIME
LST
Temp Definition
°C
Dew Point Definition
°C
Rel Hum Definition
%
Precip. Amount Definition
mm

Wind Dir Definition
10's deg

Wind Spd Definition
km/h
Visibility Definition
km
Stn Press Definition
kPa
Hmdx Definition


Wind Chill Definition


Weather Definition


00:00 -4.2 -7.8 76 0.0 30 18   100.37   -10 LegendNANA
01:00 -4.2 -7.6 77 0.0 35 11   100.42   -9 LegendNANA
02:00 -4.4 -7.4 79 0.0 32 13   100.43   -9 LegendNANA
03:00 -4.6 -8.2 76 0.0 34 10   100.48   -9 LegendNANA
04:00 -5.0 -8.5 77 0.0 33 13   100.50   -10 LegendNANA
05:00 -5.4 -8.6 78 0.0 33 15   100.54   -11 LegendNANA
06:00 -5.9 -9.1 78 0.0 32 15   100.55   -12 LegendNANA
07:00 -6.3 -9.5 78 0.0 33 16   100.56   -12 LegendNANA
08:00 -6.7 -9.2 82 0.0 33 14   100.60   -12 LegendNANA
09:00 -5.4 -8.8 77 0.0 32 16   100.61   -11 LegendNANA
10:00 -5.1 -8.9 75 0.0 32 23   100.61   -12 LegendNANA
11:00 -4.7 -8.7 74 0.0 32 21   100.60   -11 LegendNANA
12:00 -4.7 -8.7 74 0.0 32 22   100.62   -12 LegendNANA
13:00 -5.4 -9.7 72 0.0 33 22   100.64   -12 LegendNANA
14:00 -5.3 -10.0 69 0.0 31 18   100.68   -12 LegendNANA
15:00 -5.6 -10.3 69 0.0 32 22   100.70   -13 LegendNANA
16:00 -5.9 -10.5 70 0.0 31 17   100.72   -12 LegendNANA
17:00 -6.2 -11.1 68 0.0 32 17   100.74   -12 LegendNANA
18:00 -6.3 -10.5 72 0.0 32 18   100.75   -13 LegendNANA
19:00 -6.4 -10.5 72 0.0 31 16   100.76   -13 LegendNANA
20:00 -6.6 -10.4 74 0.0 33 13   100.74   -12 LegendNANA
21:00 -6.6 -10.7 73 0.0 35 14   100.71   -12 LegendNANA
22:00 -6.7 -10.4 75 0.0 34 8   100.70   -11 LegendNANA
23:00 -6.6 -10.0 77 0.0 32 5   100.68   -9 LegendNANA

Notes on Data Quality.

Legend

  • E = Estimated
  • M = Missing
  • NA = Not Available*
  • [empty] = Indicates an unobserved value
Date modified: